EW8073 Weather Reports


time (UTC)temp
C
wind
direction
speed
KPH
gust
KPH
rain 1hr
cm
rain 24hr
cm
rain mn
cm
humidity
%
barometer
mb
20260906073143 20 244 0.0 0.0 0.00 0.00 0.00 55 1017.4
20260906072644 20 244 0.0 0.0 0.00 0.00 0.00 54 1017.3
20260906072143 21 244 0.0 0.0 0.00 0.00 0.00 54 1017.2
20260906071643 21 244 0.0 0.0 0.00 0.00 0.00 54 1017.2
20260906071137 21 253 0.0 0.0 0.00 0.00 0.00 53 1017.2
20260906070126 21 253 0.0 0.0 0.00 0.00 0.00 52 1017.2
20260906065619 21 253 0.0 0.0 0.00 0.00 0.00 52 1017.3
20260906065112 21 253 0.0 0.0 0.00 0.00 0.00 52 1017.4
20260906064607 22 253 0.0 0.0 0.00 0.00 0.00 52 1017.3
20260906064102 22 253 0.0 0.0 0.00 0.00 0.00 51 1017.4
20260906063555 22 253 0.0 0.0 0.00 0.00 0.00 51 1017.3
20260906063051 22 253 0.0 0.0 0.00 0.00 0.00 51 1017.2
20260906062543 22 253 0.0 0.0 0.00 0.00 0.00 50 1017.2
20260906062037 22 253 0.0 0.0 0.00 0.00 0.00 49 1017.2
20260906061531 22 253 0.0 0.0 0.00 0.00 0.00 49 1017.3
20260906060518 22 253 0.0 0.0 0.00 0.00 0.00 48 1017.2
20260906055003 22 253 0.0 0.0 0.00 0.00 0.00 48 1017.3
20260906054455 22 253 0.0 0.0 0.00 0.00 0.00 48 1017.5
20260906053949 22 253 0.0 0.0 0.00 0.00 0.00 47 1017.6
20260906053448 22 253 0.0 0.0 0.00 0.00 0.00 46 1017.8
20260906052446 22 253 0.0 0.0 0.00 0.00 0.00 46 1017.6
20260906051943 22 253 0.0 0.0 0.00 0.00 0.00 45 1017.6
20260906050439 22 253 0.0 0.0 0.00 0.00 0.00 45 1018.2
20260906045935 22 244 0.0 0.0 0.00 0.00 0.00 45 1018.2
20260906044429 22 242 0.0 0.0 0.00 0.00 0.00 44 1017.8
20260906043930 23 14 0.0 0.0 0.00 0.00 0.00 44 1017.8
20260906043429 23 14 0.0 0.0 0.00 0.00 0.00 43 1017.5
20260906042926 23 14 0.0 0.0 0.00 0.00 0.00 43 1017.3
20260906042426 23 14 0.0 0.0 0.00 0.00 0.00 42 1017.4
20260906041924 23 14 0.0 0.0 0.00 0.00 0.00 41 1017.4
20260906041424 23 14 0.0 0.0 0.00 0.00 0.00 40 1017.2
20260906040920 23 14 0.0 0.0 0.00 0.00 0.00 40 1016.9
20260906035420 24 14 0.0 0.0 0.00 0.00 0.00 39 1016.8
20260906034920 24 14 0.0 0.0 0.00 0.00 0.00 39 1016.8
20260906034419 25 14 0.0 0.0 0.00 0.00 0.00 38 1016.7
20260906033419 25 14 0.0 0.0 0.00 0.00 0.00 37 1016.7
20260906032920 25 14 0.0 0.0 0.00 0.00 0.00 37 1016.6
20260906032416 25 14 0.0 0.0 0.00 0.00 0.00 36 1016.6
20260906031915 25 14 0.0 0.0 0.00 0.00 0.00 36 1016.5
20260906031416 26 14 0.0 0.0 0.00 0.00 0.00 36 1016.5
20260906030915 26 14 0.0 0.0 0.00 0.00 0.00 35 1016.4
20260906030415 26 14 0.0 0.0 0.00 0.00 0.00 35 1016.2
20260906025416 26 14 0.0 0.0 0.00 0.00 0.00 34 1016.0
20260906024916 27 14 0.0 0.0 0.00 0.00 0.00 34 1016.1
20260906024416 27 14 0.0 0.0 0.00 0.00 0.00 33 1016.0
20260906023909 27 13 0.0 1.6 0.00 0.00 0.00 32 1015.9
20260906023405 27 327 0.0 1.6 0.00 0.00 0.00 32 1015.9
20260906022906 27 355 0.0 4.8 0.00 0.00 0.00 32 1015.8
20260906022406 27 340 0.0 4.8 0.00 0.00 0.00 32 1015.8
20260906021907 27 327 0.0 4.8 0.00 0.00 0.00 32 1015.7
20260906021404 27 345 0.0 1.6 0.00 0.00 0.00 32 1015.8
20260906020903 28 330 0.0 1.6 0.00 0.00 0.00 31 1015.7
20260906020403 28 326 0.0 1.6 0.00 0.00 0.00 30 1015.5
20260906015402 28 311 0.0 4.8 0.00 0.00 0.00 30 1015.4
20260906014901 28 348 0.0 4.8 0.00 0.00 0.00 29 1015.3
20260906014402 29 355 0.0 0.0 0.00 0.00 0.00 29 1015.3
20260906013901 29 327 0.0 0.0 0.00 0.00 0.00 28 1015.2
20260906013359 29 320 0.0 1.6 0.00 0.00 0.00 28 1015.2
20260906012900 30 0 0.0 1.6 0.00 0.00 0.00 27 1015.2
20260906012359 30 349 0.0 1.6 0.00 0.00 0.00 27 1015.1
20260906010859 31 0 0.0 1.6 0.00 0.00 0.00 26 1015.1
20260906010354 31 282 0.0 0.0 0.00 0.00 0.00 25 1015.0
20260906005848 31 285 0.0 0.0 0.00 0.00 0.00 25 1015.0
20260906005341 31 284 0.0 0.0 0.00 0.00 0.00 25 1015.1
20260906004834 31 280 0.0 0.0 0.00 0.00 0.00 25 1015.0
20260906004329 32 280 0.0 0.0 0.00 0.00 0.00 25 1015.0
20260906003824 32 280 0.0 0.0 0.00 0.00 0.00 25 1015.0
20260906003316 32 280 0.0 0.0 0.00 0.00 0.00 25 1015.0
20260906002811 32 280 0.0 0.0 0.00 0.00 0.00 25 1015.0
20260906002306 32 280 0.0 0.0 0.00 0.00 0.00 25 1014.8
20260906001759 32 280 0.0 0.0 0.00 0.00 0.00 24 1014.8
20260906001254 33 280 0.0 0.0 0.00 0.00 0.00 23 1014.8
20260906000241 33 280 0.0 0.0 0.00 0.00 0.00 23 1014.8
20260905235735 33 280 0.0 0.0 0.00 0.00 0.00 23 1014.7
20260905234723 33 280 0.0 0.0 0.00 0.00 0.00 22 1014.6
20260905234217 33 280 0.0 0.0 0.00 0.00 0.00 22 1014.6
20260905233711 33 280 0.0 0.0 0.00 0.00 0.00 23 1014.6
20260905233206 33 280 0.0 0.0 0.00 0.00 0.00 22 1014.6
20260905232659 33 280 0.0 0.0 0.00 0.00 0.00 23 1014.6
20260905232154 33 280 0.0 0.0 0.00 0.00 0.00 26 1014.6
20260905231648 33 280 0.0 0.0 0.00 0.00 0.00 25 1014.6
20260905231142 33 280 0.0 0.0 0.00 0.00 0.00 23 1014.6
20260905230634 32 280 0.0 0.0 0.00 0.00 0.00 22 1014.6
20260905230129 32 280 0.0 0.0 0.00 0.00 0.00 27 1014.6
20260905225623 33 280 0.0 0.0 0.00 0.00 0.00 25 1014.6
20260905225118 33 280 0.0 0.0 0.00 0.00 0.00 22 1014.5
20260905224612 33 280 0.0 0.0 0.00 0.00 0.00 24 1014.5
20260905223600 33 280 0.0 0.0 0.00 0.00 0.00 22 1014.5
20260905222547 33 279 0.0 0.0 0.00 0.00 0.00 25 1014.5
20260905222043 33 281 0.0 0.0 0.00 0.00 0.00 23 1014.5
20260905221536 33 284 0.0 0.0 0.00 0.00 0.00 24 1014.6
20260905220522 33 279 0.0 0.0 0.00 0.00 0.00 25 1014.7
20260905220018 33 279 0.0 0.0 0.00 0.00 0.00 24 1014.7
20260905215512 32 279 0.0 0.0 0.00 0.00 0.00 25 1015.0
20260905215006 32 279 0.0 0.0 0.00 0.00 0.00 24 1015.1
20260905214459 32 279 0.0 1.6 0.00 0.00 0.00 24 1015.1
20260905213952 32 279 0.0 1.6 0.00 0.00 0.00 23 1015.1
20260905213446 32 333 0.0 0.0 0.00 0.00 0.00 25 1015.1
20260905212941 32 332 0.0 0.0 0.00 0.00 0.00 23 1015.2
20260905211928 33 0 0.0 0.0 0.00 0.00 0.00 23 1015.2
20260905211423 33 44 0.0 0.0 0.00 0.00 0.00 27 1015.3
20260905210411 33 67 0.0 0.0 0.00 0.00 0.00 24 1015.4
20260905205906 33 67 0.0 0.0 0.00 0.00 0.00 25 1015.5
20260905205400 33 66 0.0 0.0 0.00 0.00 0.00 25 1015.5
20260905204854 33 67 0.0 0.0 0.00 0.00 0.00 25 1015.5
20260905204347 33 346 0.0 0.0 0.00 0.00 0.00 24 1015.5
20260905203338 32 316 0.0 4.8 0.00 0.00 0.00 24 1015.8
20260905202839 33 269 0.0 4.8 0.00 0.00 0.00 26 1015.9
20260905202338 33 67 0.0 1.6 0.00 0.00 0.00 29 1016.0
20260905201839 32 88 0.0 1.6 0.00 0.00 0.00 26 1015.9
20260905201337 32 93 0.0 1.6 0.00 0.00 0.00 25 1016.0
20260905200836 32 88 0.0 1.6 0.00 0.00 0.00 28 1016.0
20260905200334 32 15 0.0 1.6 0.00 0.00 0.00 27 1016.1
20260905195838 32 44 0.0 1.6 0.00 0.00 0.00 29 1016.1
20260905195333 32 56 0.0 6.4 0.00 0.00 0.00 27 1016.1
20260905194333 31 65 0.0 0.0 0.00 0.00 0.00 29 1016.4
20260905193832 31 42 0.0 3.2 0.00 0.00 0.00 28 1016.4
20260905193333 31 51 0.0 3.2 0.00 0.00 0.00 28 1016.5
20260905192830 31 77 0.0 0.0 0.00 0.00 0.00 28 1016.5
20260905191829 31 74 0.0 0.0 0.00 0.00 0.00 28 1016.6
20260905191329 31 56 0.0 0.0 0.00 0.00 0.00 27 1016.6
20260905190327 31 51 0.0 0.0 0.00 0.00 0.00 29 1016.7
20260905185826 31 60 0.0 1.6 0.00 0.00 0.00 28 1016.7
20260905185328 30 72 0.0 1.6 0.00 0.00 0.00 29 1016.8
20260905184826 30 111 0.0 0.0 0.00 0.00 0.00 30 1016.8
20260905184326 30 107 0.0 0.0 0.00 0.00 0.00 31 1016.9
20260905183827 30 71 0.0 0.0 0.00 0.00 0.00 30 1017.1
20260905182826 29 78 0.0 0.0 0.00 0.00 0.00 30 1017.2
20260905182327 29 87 0.0 0.0 0.00 0.00 0.00 31 1017.2
20260905180822 28 87 0.0 0.0 0.00 0.00 0.00 34 1017.5
20260905180323 28 88 0.0 0.0 0.00 0.00 0.00 36 1017.6
20260905175822 28 88 0.0 0.0 0.00 0.00 0.00 34 1017.6
20260905175326 28 88 0.0 0.0 0.00 0.00 0.00 35 1017.8
20260905174825 28 88 0.0 0.0 0.00 0.00 0.00 33 1017.9
20260905174325 28 88 0.0 0.0 0.00 0.00 0.00 35 1017.9
20260905173825 28 88 0.0 0.0 0.00 0.00 0.00 32 1017.8
20260905173321 28 88 0.0 0.0 0.00 0.00 0.00 35 1017.8
20260905172821 28 86 0.0 0.0 0.00 0.00 0.00 36 1017.6
20260905172321 28 86 0.0 0.0 0.00 0.00 0.00 37 1017.6
20260905171818 28 83 0.0 0.0 0.00 0.00 0.00 36 1017.8
20260905171318 27 74 0.0 0.0 0.00 0.00 0.00 35 1017.8
20260905170820 27 75 0.0 0.0 0.00 0.00 0.00 36 1017.8
20260905165814 27 244 0.0 0.0 0.00 0.00 0.00 37 1017.6
20260905165313 27 244 0.0 0.0 0.00 0.00 0.00 37 1017.6
20260905164810 26 244 0.0 0.0 0.00 0.00 0.00 37 1017.6
20260905163806 26 244 0.0 0.0 0.00 0.00 0.00 41 1017.8
20260905162804 26 246 0.0 0.0 0.00 0.00 0.00 41 1017.8
20260905162301 26 228 0.0 0.0 0.00 0.00 0.00 41 1017.8
20260905161800 25 228 0.0 0.0 0.00 0.00 0.00 41 1017.8
20260905161301 25 227 0.0 0.0 0.00 0.00 0.00 41 1017.8
20260905160801 25 232 0.0 0.0 0.00 0.00 0.00 41 1017.6
20260905160256 25 232 0.0 0.0 0.00 0.00 0.00 40 1017.6
20260905155758 25 232 0.0 0.0 0.00 0.00 0.00 41 1017.6
20260905155256 25 234 0.0 0.0 0.00 0.00 0.00 42 1017.8
20260905154754 25 234 0.0 0.0 0.00 0.00 0.00 41 1017.8
20260905154254 24 233 0.0 0.0 0.00 0.00 0.00 43 1017.8
20260905153754 24 233 0.0 0.0 0.00 0.00 0.00 43 1017.6
20260905153254 23 233 0.0 0.0 0.00 0.00 0.00 43 1017.8
20260905152255 23 233 0.0 0.0 0.00 0.00 0.00 46 1017.8
20260905151254 22 233 0.0 0.0 0.00 0.00 0.00 47 1017.8
20260905150752 22 233 0.0 0.0 0.00 0.00 0.00 48 1017.8
20260905145239 21 233 0.0 0.0 0.00 0.00 0.00 55 1017.6
20260905144734 21 233 0.0 0.0 0.00 0.00 0.00 56 1017.6
20260905143722 20 232 0.0 0.0 0.00 0.00 0.00 60 1017.8
20260905143216 20 232 0.0 0.0 0.00 0.00 0.00 60 1017.8
20260905142205 19 232 0.0 0.0 0.00 0.00 0.00 62 1017.6
20260905141658 18 232 0.0 0.0 0.00 0.00 0.00 63 1017.5
20260905141153 18 232 0.0 0.0 0.00 0.00 0.00 63 1017.4
20260905140140 18 232 0.0 0.0 0.00 0.00 0.00 65 1017.3
20260905135634 17 232 0.0 0.0 0.00 0.00 0.00 67 1017.3
20260905134622 17 228 0.0 0.0 0.00 0.00 0.00 68 1017.2
20260905134115 17 228 0.0 0.0 0.00 0.00 0.00 68 1017.3
20260905133103 17 227 0.0 0.0 0.00 0.00 0.00 68 1017.2
20260905132557 17 228 0.0 0.0 0.00 0.00 0.00 69 1017.2
20260905132052 16 228 0.0 0.0 0.00 0.00 0.00 68 1017.1
20260905131546 16 228 0.0 0.0 0.00 0.00 0.00 68 1017.1
20260905131041 16 227 0.0 0.0 0.00 0.00 0.00 68 1017.1
20260905130535 16 227 0.0 0.0 0.00 0.00 0.00 68 1016.9
20260905130030 16 227 0.0 0.0 0.00 0.00 0.00 67 1016.8
20260905125525 16 227 0.0 0.0 0.00 0.00 0.00 67 1016.8
20260905125017 17 228 0.0 0.0 0.00 0.00 0.00 67 1016.7
20260905124509 17 227 0.0 0.0 0.00 0.00 0.00 66 1016.7
20260905124005 17 227 0.0 0.0 0.00 0.00 0.00 66 1016.7
20260905122954 17 227 0.0 0.0 0.00 0.00 0.00 65 1016.6
20260905122445 17 227 0.0 0.0 0.00 0.00 0.00 65 1016.6
20260905121939 17 227 0.0 0.0 0.00 0.00 0.00 64 1016.5
20260905121434 17 227 0.0 0.0 0.00 0.00 0.00 64 1016.5
20260905120928 17 227 0.0 0.0 0.00 0.00 0.00 63 1016.5
20260905120423 17 227 0.0 0.0 0.00 0.00 0.00 64 1016.5
20260905115916 17 227 0.0 0.0 0.00 0.00 0.00 63 1016.5
20260905115410 17 227 0.0 0.0 0.00 0.00 0.00 63 1016.5
20260905114904 17 227 0.0 0.0 0.00 0.00 0.00 63 1016.5
20260905114358 17 227 0.0 0.0 0.00 0.00 0.00 63 1016.5
20260905113852 17 227 0.0 0.0 0.00 0.00 0.00 63 1016.5
20260905113347 17 227 0.0 0.0 0.00 0.00 0.00 63 1016.4
20260905112840 17 227 0.0 0.0 0.00 0.00 0.00 63 1016.4
20260905112334 17 227 0.0 0.0 0.00 0.00 0.00 63 1016.4
20260905111828 17 227 0.0 0.0 0.00 0.00 0.00 63 1016.4
20260905110817 18 227 0.0 0.0 0.00 0.00 0.00 63 1016.2
20260905110310 18 227 0.0 0.0 0.00 0.00 0.00 63 1016.4
20260905105257 18 227 0.0 0.0 0.00 0.00 0.00 63 1016.2
20260905104752 18 227 0.0 0.0 0.00 0.00 0.00 62 1016.2
20260905104245 18 0 0.0 0.0 0.00 0.00 0.00 61 1016.1
20260905103741 18 227 0.0 0.0 0.00 0.00 0.00 61 1016.1
20260905102738 18 227 0.0 0.0 0.00 0.00 0.00 59 1016.1
20260905102237 18 227 0.0 0.0 0.00 0.00 0.00 59 1016.1
20260905101231 19 227 0.0 0.0 0.00 0.00 0.00 58 1016.2
20260905100729 19 227 0.0 0.0 0.00 0.00 0.00 58 1016.1
20260905100228 19 227 0.0 0.0 0.00 0.00 0.00 58 1016.1
20260905095227 19 227 0.0 0.0 0.00 0.00 0.00 56 1016.0
20260905094726 20 227 0.0 0.0 0.00 0.00 0.00 55 1016.0
20260905093726 20 227 0.0 0.0 0.00 0.00 0.00 55 1015.9
20260905092722 20 227 0.0 0.0 0.00 0.00 0.00 54 1015.8
20260905091721 20 227 0.0 0.0 0.00 0.00 0.00 54 1015.8
20260905090722 20 227 0.0 0.0 0.00 0.00 0.00 53 1015.9
20260905090222 20 227 0.0 0.0 0.00 0.00 0.00 53 1015.9
20260905085721 20 227 0.0 0.0 0.00 0.00 0.00 52 1015.8
20260905085222 20 227 0.0 0.0 0.00 0.00 0.00 52 1015.7
20260905084721 20 227 0.0 0.0 0.00 0.00 0.00 52 1015.7
20260905084219 20 227 0.0 0.0 0.00 0.00 0.00 52 1015.5
20260905083718 20 227 0.0 0.0 0.00 0.00 0.00 52 1015.4
20260905083217 20 227 0.0 0.0 0.00 0.00 0.00 53 1015.5
20260905082717 20 227 0.0 0.0 0.00 0.00 0.00 52 1015.5
20260905082218 20 227 0.0 0.0 0.00 0.00 0.00 52 1015.5
20260905081220 21 227 0.0 0.0 0.00 0.00 0.00 52 1015.4
20260905080220 21 226 0.0 0.0 0.00 0.00 0.00 52 1015.4
20260905075714 21 226 0.0 0.0 0.00 0.00 0.00 51 1015.5
20260905075208 21 226 0.0 0.0 0.00 0.00 0.00 51 1015.5
20260905074701 21 226 0.0 0.0 0.00 0.00 0.00 51 1015.5
20260905074154 21 225 0.0 0.0 0.00 0.00 0.00 51 1015.7
20260905073648 21 225 0.0 0.0 0.00 0.00 0.00 51 1015.7